Overview Statistics Trail Chart Weather Telemetry Raw packets
 

This is the latest recevied weather packets stored in our database for station/object N9BLE. If no packets are shown the sender has not sent any weather packets the latest 10 day(s).

<< 64 65 66 67 68 69 70 >>
Time Temp. Humidity Pressure Rain* Wind** Luminosity Snow
1777596254 6.11° C 95% 1017.7 hPa 0 mm - 1 W/m² -
1777595951 6.67° C 95% 1017.6 hPa 0 mm - 1 W/m² -
1777595651 6.67° C 95% 1017.4 hPa 0 mm - 2 W/m² -
1777595346 7.22° C 95% 1017.4 hPa 0 mm - 1 W/m² -
1777595043 7.22° C 95% 1017.4 hPa 0 mm - 2 W/m² -
1777594740 7.22° C 95% 1017.5 hPa 0 mm - 4 W/m² -
1777594436 6.67° C 95% 1017.5 hPa 0 mm - 5 W/m² -
1777594131 7.22° C 95% 1017.5 hPa 0 mm - 5 W/m² -
1777593828 7.22° C 95% 1017.3 hPa 1.78 mm - 7 W/m² -
1777593525 7.78° C 95% 1017.4 hPa 1.78 mm - 7 W/m² -
1777593219 7.78° C 95% 1017.5 hPa 0 mm - 11 W/m² -
1777592918 7.78° C 94% 1017.3 hPa 0 mm - 20 W/m² -
1777592614 7.78° C 94% 1017.5 hPa 0 mm - 13 W/m² -
1777592310 8.33° C 93% 1017.3 hPa 0 mm - 19 W/m² -
1777592006 8.33° C 92% 1017.5 hPa 0 mm - 53 W/m² -
1777591703 7.78° C 92% 1017.4 hPa 0 mm - 19 W/m² -
1777591398 7.78° C 91% 1017.4 hPa 1.27 mm - 17 W/m² -
1777591095 7.78° C 91% 1017.5 hPa 1.27 mm - 15 W/m² -
1777590790 8.33° C 91% 1017.7 hPa 0 mm - 21 W/m² -
1777590492 8.33° C 90% 1017.7 hPa 0 mm - 23 W/m² -
1777590183 8.33° C 90% 1017.8 hPa 1.78 mm - 27 W/m² -
1777589880 8.33° C 89% 1017.9 hPa 0 mm - 19 W/m² -
1777589575 8.33° C 88% 1017.7 hPa 1.27 mm - 20 W/m² -
1777589273 8.33° C 88% 1017.8 hPa 1.27 mm - 18 W/m² -
1777588971 8.33° C 87% 1017.6 hPa 0 mm - 20 W/m² -

* Rain latest hour (hover to see other rain measurements)
** Current wind speed in m/s (hover to see current wind gust speed)